EW9523 Weather Reports


Display with metric or nautical units.
time (UTC)temp
F
wind
direction
speed
MPH
gust
MPH
rain 1hr
in
rain 24hr
in
rain mn
in
humidity
%
barometer
mb
20260510060612 59 85 2.0 3.0 0.00 0.00 0.00 79 1012.1
20260510055610 59 98 2.0 3.0 0.00 0.00 0.00 77 1012.1
20260510054608 60 55 2.0 4.0 0.00 0.00 0.00 77 1012.1
20260510053607 60 52 2.0 4.0 0.00 0.00 0.00 75 1012.1
20260510052604 61 52 1.0 2.0 0.00 0.00 0.00 74 1012.1
20260510051604 62 59 1.0 3.0 0.00 0.00 0.00 73 1012.0
20260510050555 62 53 1.0 3.0 0.00 0.00 0.00 72 1012.0
20260510045557 63 54 2.0 4.0 0.00 0.00 0.00 70 1012.0
20260510044554 64 331 1.0 4.0 0.00 0.00 0.00 69 1011.9
20260510043546 65 26 1.0 4.0 0.00 0.00 0.00 68 1011.7
20260510042544 66 39 0.0 3.0 0.00 0.00 0.00 65 1011.7
20260510041538 67 66 1.0 3.0 0.00 0.00 0.00 63 1011.7
20260510040535 68 63 1.0 3.0 0.00 0.00 0.00 62 1011.6
20260510035535 69 328 1.0 4.0 0.00 0.00 0.00 59 1011.6
20260510034535 70 355 1.0 4.0 0.00 0.00 0.00 58 1011.5
20260510033534 71 5 1.0 4.0 0.00 0.00 0.00 57 1011.4
20260510033011 72 333 2.0 7.0 0.00 0.00 0.00 55 1011.3
20260510031521 73 256 1.0 6.0 0.00 0.00 0.00 53 1011.3
20260510030521 74 267 3.0 9.0 0.00 0.00 0.00 52 1011.2
20260510025519 76 271 4.0 9.0 0.00 0.00 0.00 50 1011.0
20260510024518 77 250 3.0 9.0 0.00 0.00 0.00 49 1011.0
20260510023516 78 272 4.0 8.0 0.00 0.00 0.00 46 1010.9
20260510022516 80 270 3.0 10.0 0.00 0.00 0.00 45 1010.8
20260510021516 81 266 2.0 6.0 0.00 0.00 0.00 45 1010.8
20260510021446 82 217 2.0 5.0 0.00 0.00 0.00 46 1011.0
20260510015517 82 284 2.0 7.0 0.00 0.00 0.00 47 1011.0
20260510014516 82 273 4.0 9.0 0.00 0.00 0.00 43 1010.9
20260510013508 82 289 4.0 10.0 0.00 0.00 0.00 44 1010.9
20260510012506 83 271 4.0 11.0 0.00 0.00 0.00 41 1010.9
20260510011507 84 207 4.0 9.0 0.00 0.00 0.00 40 1010.9
20260510010505 84 249 2.0 9.0 0.00 0.00 0.00 40 1010.9
20260510005503 84 175 4.0 11.0 0.00 0.00 0.00 44 1011.0
20260510004500 83 259 2.0 7.0 0.00 0.00 0.00 56 1011.0
20260510003500 84 146 2.0 5.0 0.00 0.00 0.00 55 1011.0
20260510002937 83 130 3.0 7.0 0.00 0.00 0.00 55 1011.0
20260510001458 84 194 2.0 7.0 0.00 0.00 0.00 54 1010.9
20260510000459 84 145 3.0 7.0 0.00 0.00 0.00 55 1011.0
20260510000414 84 173 4.0 11.0 0.00 0.00 0.00 54 1011.1
20260509234434 85 97 3.0 9.0 0.00 0.00 0.00 55 1011.2
20260509233426 85 102 4.0 10.0 0.00 0.00 0.00 54 1011.2
20260509232427 85 122 3.0 10.0 0.00 0.00 0.00 55 1011.2
20260509231422 85 146 4.0 9.0 0.00 0.00 0.00 53 1011.2
20260509230420 85 131 3.0 10.0 0.00 0.00 0.00 53 1011.2
20260509225420 85 192 3.0 7.0 0.00 0.00 0.00 54 1011.3
20260509224418 86 121 3.0 7.0 0.00 0.00 0.00 51 1011.4
20260509223416 86 186 2.0 9.0 0.00 0.00 0.00 51 1011.4
20260509222417 85 232 4.0 10.0 0.00 0.00 0.00 52 1011.5
20260509221416 85 113 3.0 9.0 0.00 0.00 0.00 51 1011.7
20260509220416 86 169 3.0 9.0 0.00 0.00 0.00 51 1011.8
20260509215411 85 98 2.0 9.0 0.00 0.00 0.00 49 1011.8
20260509214411 85 149 3.0 9.0 0.00 0.00 0.00 49 1011.9
20260509213408 85 196 3.0 7.0 0.00 0.00 0.00 50 1012.1
20260509212407 86 86 3.0 7.0 0.00 0.00 0.00 50 1012.1
20260509211406 86 223 2.0 7.0 0.00 0.00 0.00 50 1012.3
20260509210406 85 86 2.0 6.0 0.00 0.00 0.00 49 1012.3
20260509205406 84 88 2.0 6.0 0.00 0.00 0.00 47 1012.4
20260509204406 84 181 2.0 6.0 0.00 0.00 0.00 46 1012.5
20260509203358 84 142 2.0 4.0 0.00 0.00 0.00 47 1012.5
20260509202359 84 169 3.0 6.0 0.00 0.00 0.00 49 1012.7
20260509201358 84 105 2.0 7.0 0.00 0.00 0.00 50 1012.8
20260509200356 83 234 1.0 6.0 0.00 0.00 0.00 49 1012.9
20260509195356 82 202 1.0 4.0 0.00 0.00 0.00 48 1013.1
20260509194353 82 69 1.0 4.0 0.00 0.00 0.00 48 1013.1
20260509193352 81 325 2.0 5.0 0.00 0.00 0.00 49 1013.1
20260509192353 80 165 1.0 3.0 0.00 0.00 0.00 50 1013.2
20260509191353 80 165 2.0 4.0 0.00 0.00 0.00 51 1013.4
20260509190835 79 323 1.0 6.0 0.00 0.00 0.00 51 1013.5
20260509185827 78 54 1.0 3.0 0.00 0.00 0.00 52 1013.4
20260509184350 78 229 1.0 5.0 0.00 0.00 0.00 52 1013.4
20260509183350 76 123 2.0 4.0 0.00 0.00 0.00 53 1013.5
20260509182342 76 296 2.0 4.0 0.00 0.00 0.00 54 1013.6
20260509181341 75 203 2.0 5.0 0.00 0.00 0.00 55 1013.7
20260509180340 75 9 1.0 5.0 0.00 0.00 0.00 56 1013.8
20260509175341 74 198 1.0 4.0 0.00 0.00 0.00 55 1013.9
20260509174338 73 0 2.0 5.0 0.00 0.00 0.00 57 1013.9
20260509173336 72 60 2.0 6.0 0.00 0.00 0.00 58 1014.0
20260509172334 71 36 1.0 5.0 0.00 0.00 0.00 59 1014.0
20260509171811 71 355 1.0 5.0 0.00 0.00 0.00 61 1014.0
20260509170754 70 265 1.0 4.0 0.00 0.00 0.00 62 1014.0
20260509165310 68 61 2.0 6.0 0.00 0.00 0.00 63 1014.1
20260509164302 67 355 2.0 5.0 0.00 0.00 0.00 64 1014.1
20260509163302 67 311 2.0 5.0 0.00 0.00 0.00 65 1014.1
20260509162301 66 304 2.0 5.0 0.00 0.00 0.00 67 1014.0
20260509161257 65 341 2.0 5.0 0.00 0.00 0.00 66 1014.1
20260509160256 64 329 2.0 4.0 0.00 0.00 0.00 68 1014.2
20260509155255 63 323 2.0 6.0 0.00 0.00 0.00 70 1014.2
20260509154253 62 338 3.0 7.0 0.00 0.00 0.00 72 1014.2
20260509153242 62 335 2.0 6.0 0.00 0.00 0.00 73 1014.1
20260509152706 60 36 2.0 4.0 0.00 0.00 0.00 77 1014.1
20260509150230 56 233 0.0 0.0 0.00 0.00 0.00 84 1013.9
20260509145219 55 127 0.0 3.0 0.00 0.00 0.00 85 1013.9
20260509144209 55 119 0.0 0.0 0.00 0.00 0.00 85 1013.9
20260509143649 54 119 0.0 0.0 0.00 0.00 0.00 86 1013.9
20260509142646 53 119 0.0 0.0 0.00 0.00 0.00 88 1013.8
20260509142127 52 119 0.0 0.0 0.00 0.00 0.00 90 1013.7
20260509140159 51 119 0.0 0.0 0.00 0.00 0.00 90 1013.7
20260509135150 51 119 0.0 2.0 0.00 0.00 0.00 91 1013.7
20260509134143 51 119 1.0 2.0 0.00 0.00 0.00 92 1013.7
20260509133144 51 101 0.0 2.0 0.00 0.00 0.00 92 1013.6
20260509132143 51 327 0.0 0.0 0.00 0.00 0.00 91 1013.6
20260509131141 51 80 0.0 2.0 0.00 0.00 0.00 91 1013.5
20260509130127 51 51 0.0 2.0 0.00 0.00 0.00 91 1013.5
20260509125559 51 51 0.0 0.0 0.00 0.00 0.00 91 1013.4
20260509124122 51 51 0.0 1.0 0.00 0.00 0.00 91 1013.4
20260509123106 51 51 0.0 0.0 0.00 0.00 0.00 91 1013.5
20260509122055 50 51 0.0 1.0 0.00 0.00 0.00 90 1013.4
20260509121033 51 51 0.0 2.0 0.00 0.00 0.00 89 1013.5
20260509120030 51 80 0.0 1.0 0.00 0.00 0.00 89 1013.7
20260509115020 51 80 0.0 0.0 0.00 0.00 0.00 88 1013.6
20260509114019 52 80 0.0 0.0 0.00 0.00 0.00 88 1013.7
20260509113913 52 80 0.0 1.0 0.00 0.00 0.00 87 1013.7
20260509111956 52 44 0.0 2.0 0.00 0.00 0.00 87 1013.7
20260509110954 53 115 1.0 3.0 0.00 0.00 0.00 87 1013.7
20260509105949 53 111 0.0 3.0 0.00 0.00 0.00 87 1013.8
20260509104942 53 84 0.0 2.0 0.00 0.00 0.00 86 1013.7
20260509104428 53 89 0.0 3.0 0.00 0.00 0.00 86 1013.6
20260509102941 53 103 0.0 2.0 0.00 0.00 0.00 86 1013.5
20260509101935 53 107 0.0 3.0 0.00 0.00 0.00 85 1013.6
20260509100933 54 111 0.0 2.0 0.00 0.00 0.00 84 1013.5
20260509095925 54 112 0.0 2.0 0.00 0.00 0.00 84 1013.5
20260509094901 55 114 1.0 3.0 0.00 0.00 0.00 82 1013.5
20260509093901 55 115 0.0 2.0 0.00 0.00 0.00 81 1013.6
20260509092902 55 115 0.0 0.0 0.00 0.00 0.00 80 1013.5
20260509091902 55 115 0.0 0.0 0.00 0.00 0.00 80 1013.6
20260509090902 56 115 0.0 1.0 0.00 0.00 0.00 80 1013.5
20260509085843 56 115 0.0 0.0 0.00 0.00 0.00 77 1013.6
20260509084820 56 115 0.0 2.0 0.00 0.00 0.00 77 1013.7
20260509084300 56 115 0.0 2.0 0.00 0.00 0.00 78 1013.8
20260509082803 56 115 0.0 1.0 0.00 0.00 0.00 77 1013.8
20260509081717 57 115 0.0 2.0 0.00 0.00 0.00 76 1013.9
20260509080718 57 115 1.0 2.0 0.00 0.00 0.00 75 1013.9
20260509075710 58 99 1.0 2.0 0.00 0.00 0.00 75 1013.9
20260509074703 58 85 0.0 1.0 0.00 0.00 0.00 71 1014.0
20260509073702 59 149 0.0 0.0 0.00 0.00 0.00 70 1014.2
20260509072655 59 149 0.0 0.0 0.00 0.00 0.00 69 1014.2
20260509072132 60 149 0.0 0.0 0.00 0.00 0.00 67 1014.2
20260509070641 60 57 0.0 1.0 0.00 0.00 0.00 67 1014.2
20260509065640 60 40 0.0 0.0 0.00 0.00 0.00 67 1014.1
20260509065128 60 40 0.0 0.0 0.00 0.00 0.00 68 1014.2
20260509063620 60 40 2.0 4.0 0.00 0.00 0.00 68 1014.4
20260509063050 60 46 3.0 4.0 0.00 0.00 0.00 67 1014.3
20260509061609 60 51 3.0 5.0 0.00 0.00 0.00 67 1014.4